Year,Month,Day,Hour,Minute,Value (Times are PST for temperature in C)
2015,08,17,00,00,14.00
2015,08,17,00,01,14.00
2015,08,17,00,02,14.00
2015,08,17,00,03,13.90
2015,08,17,00,04,13.90
2015,08,17,00,05,13.90
2015,08,17,00,06,13.90
2015,08,17,00,07,13.90
2015,08,17,00,08,13.90
2015,08,17,00,09,13.80
2015,08,17,00,10,13.80
2015,08,17,00,11,13.80
2015,08,17,00,12,13.80
2015,08,17,00,13,13.80
2015,08,17,00,14,13.80
2015,08,17,00,15,13.80
2015,08,17,00,16,13.80
2015,08,17,00,17,13.70
2015,08,17,00,18,13.70
2015,08,17,00,19,13.70
2015,08,17,00,20,13.60
2015,08,17,00,21,13.60
2015,08,17,00,22,13.60
2015,08,17,00,23,13.60
2015,08,17,00,24,13.60
2015,08,17,00,25,13.60
2015,08,17,00,26,13.50
2015,08,17,00,27,13.50
2015,08,17,00,28,13.50
2015,08,17,00,29,13.50
2015,08,17,00,30,13.40
2015,08,17,00,31,13.40
2015,08,17,00,32,13.40
2015,08,17,00,33,13.40
2015,08,17,00,34,13.40
2015,08,17,00,35,13.40
2015,08,17,00,36,13.40
2015,08,17,00,37,13.40
2015,08,17,00,38,13.40
2015,08,17,00,39,13.40
2015,08,17,00,40,13.40
2015,08,17,00,41,13.40
2015,08,17,00,42,13.40
2015,08,17,00,43,13.40
2015,08,17,00,44,13.50
2015,08,17,00,45,13.50
2015,08,17,00,46,13.50
2015,08,17,00,47,13.40
2015,08,17,00,48,13.40
2015,08,17,00,49,13.40
2015,08,17,00,50,13.50
2015,08,17,00,51,13.50
2015,08,17,00,52,13.50
2015,08,17,00,53,13.50
2015,08,17,00,54,13.50
2015,08,17,00,55,13.50
2015,08,17,00,56,13.50
2015,08,17,00,57,13.50
2015,08,17,00,58,13.40
2015,08,17,00,59,13.40
2015,08,17,01,00,13.40
2015,08,17,01,01,13.30
2015,08,17,01,02,13.30
2015,08,17,01,03,13.30
2015,08,17,01,04,13.30
2015,08,17,01,05,13.30
2015,08,17,01,06,13.30
2015,08,17,01,07,13.30
2015,08,17,01,08,13.30
2015,08,17,01,09,13.30
2015,08,17,01,10,13.20
2015,08,17,01,11,13.20
2015,08,17,01,12,13.20
2015,08,17,01,13,13.20
2015,08,17,01,14,13.20
2015,08,17,01,15,13.20
2015,08,17,01,16,13.20
2015,08,17,01,17,13.10
2015,08,17,01,18,13.10
2015,08,17,01,19,13.10
2015,08,17,01,20,13.10
2015,08,17,01,21,13.10
2015,08,17,01,22,13.10
2015,08,17,01,23,13.10
2015,08,17,01,24,13.10
2015,08,17,01,25,13.00
2015,08,17,01,26,13.00
2015,08,17,01,27,12.90
2015,08,17,01,28,12.90
2015,08,17,01,29,12.90
2015,08,17,01,30,12.90
2015,08,17,01,31,12.90
2015,08,17,01,32,12.90
2015,08,17,01,33,12.80
2015,08,17,01,34,12.80
2015,08,17,01,35,12.80
2015,08,17,01,36,12.80
2015,08,17,01,37,12.80
2015,08,17,01,38,12.80
2015,08,17,01,39,12.80
2015,08,17,01,40,12.70
2015,08,17,01,41,12.70
2015,08,17,01,42,12.70
2015,08,17,01,43,12.70
2015,08,17,01,44,12.70
2015,08,17,01,45,12.70
2015,08,17,01,46,12.80
2015,08,17,01,47,12.80
2015,08,17,01,48,12.80
2015,08,17,01,49,12.80
2015,08,17,01,50,12.80
2015,08,17,01,51,12.80
2015,08,17,01,52,12.80
2015,08,17,01,53,12.80
2015,08,17,01,54,12.80
2015,08,17,01,55,12.80
2015,08,17,01,56,12.70
2015,08,17,01,57,12.70
2015,08,17,01,58,12.70
2015,08,17,01,59,12.70
2015,08,17,02,00,12.70
2015,08,17,02,01,12.60
2015,08,17,02,02,12.60
2015,08,17,02,03,12.60
2015,08,17,02,04,12.60
2015,08,17,02,05,12.60
2015,08,17,02,06,12.60
2015,08,17,02,07,12.60
2015,08,17,02,08,12.60
2015,08,17,02,09,12.60
2015,08,17,02,10,12.60
2015,08,17,02,11,12.60
2015,08,17,02,12,12.60
2015,08,17,02,13,12.60
2015,08,17,02,14,12.60
2015,08,17,02,15,12.60
2015,08,17,02,16,12.60
2015,08,17,02,17,12.60
2015,08,17,02,18,12.60
2015,08,17,02,19,12.70
2015,08,17,02,20,12.70
2015,08,17,02,21,12.70
2015,08,17,02,22,12.70
2015,08,17,02,23,12.70
2015,08,17,02,24,12.70
2015,08,17,02,25,12.60
2015,08,17,02,26,12.60
2015,08,17,02,27,12.50
2015,08,17,02,28,12.50
2015,08,17,02,29,12.40
2015,08,17,02,30,12.40
2015,08,17,02,31,12.40
2015,08,17,02,32,12.40
2015,08,17,02,33,12.40
2015,08,17,02,34,12.40
2015,08,17,02,35,12.40
2015,08,17,02,36,12.40
2015,08,17,02,37,12.40
2015,08,17,02,38,12.30
2015,08,17,02,39,12.30
2015,08,17,02,40,12.30
2015,08,17,02,41,12.30
2015,08,17,02,42,12.30
2015,08,17,02,43,12.30
2015,08,17,02,44,12.30
2015,08,17,02,45,12.30
2015,08,17,02,46,12.20
2015,08,17,02,47,12.20
2015,08,17,02,48,12.20
2015,08,17,02,49,12.20
2015,08,17,02,50,12.20
2015,08,17,02,51,12.20
2015,08,17,02,52,12.20
2015,08,17,02,53,12.20
2015,08,17,02,54,12.20
2015,08,17,02,55,12.30
2015,08,17,02,56,12.30
2015,08,17,02,57,12.30
2015,08,17,02,58,12.30
2015,08,17,02,59,12.30
2015,08,17,03,00,12.30
2015,08,17,03,01,12.40
2015,08,17,03,02,12.40
2015,08,17,03,03,12.40
2015,08,17,03,04,12.40
2015,08,17,03,05,12.40
2015,08,17,03,06,12.40
2015,08,17,03,07,12.40
2015,08,17,03,08,12.30
2015,08,17,03,09,12.30
2015,08,17,03,10,12.30
2015,08,17,03,11,12.30
2015,08,17,03,12,12.30
2015,08,17,03,13,12.30
2015,08,17,03,14,12.30
2015,08,17,03,15,12.30
2015,08,17,03,16,12.30
2015,08,17,03,17,12.30
2015,08,17,03,18,12.30
2015,08,17,03,19,12.20
2015,08,17,03,20,12.20
2015,08,17,03,21,12.20
2015,08,17,03,22,12.20
2015,08,17,03,23,12.20
2015,08,17,03,24,12.20
2015,08,17,03,25,12.20
2015,08,17,03,26,12.20
2015,08,17,03,27,12.20
2015,08,17,03,28,12.20
2015,08,17,03,29,12.20
2015,08,17,03,30,12.20
2015,08,17,03,31,12.10
2015,08,17,03,32,12.10
2015,08,17,03,33,12.10
2015,08,17,03,34,12.10
2015,08,17,03,35,12.10
2015,08,17,03,36,12.20
2015,08,17,03,37,12.20
2015,08,17,03,38,12.20
2015,08,17,03,39,12.20
2015,08,17,03,40,12.20
2015,08,17,03,41,12.30
2015,08,17,03,42,12.30
2015,08,17,03,43,12.30
2015,08,17,03,44,12.20
2015,08,17,03,45,12.20
2015,08,17,03,46,12.20
2015,08,17,03,47,12.20
2015,08,17,03,48,12.20
2015,08,17,03,49,12.10
2015,08,17,03,50,12.10
2015,08,17,03,51,12.00
2015,08,17,03,52,12.00
2015,08,17,03,53,12.00
2015,08,17,03,54,11.90
2015,08,17,03,55,11.90
2015,08,17,03,56,11.80
2015,08,17,03,57,11.90
2015,08,17,03,58,11.90
2015,08,17,03,59,11.90
2015,08,17,04,00,11.90
2015,08,17,04,01,11.90
2015,08,17,04,02,11.90
2015,08,17,04,03,11.90
2015,08,17,04,04,11.90
2015,08,17,04,05,11.90
2015,08,17,04,06,11.90
2015,08,17,04,07,11.90
2015,08,17,04,08,11.90
2015,08,17,04,09,11.90
2015,08,17,04,10,11.80
2015,08,17,04,11,11.80
2015,08,17,04,12,11.80
2015,08,17,04,13,11.80
2015,08,17,04,14,11.70
2015,08,17,04,15,11.70
2015,08,17,04,16,11.70
2015,08,17,04,17,11.70
2015,08,17,04,18,11.70
2015,08,17,04,19,11.60
2015,08,17,04,20,11.60
2015,08,17,04,21,11.60
2015,08,17,04,22,11.60
2015,08,17,04,23,11.50
2015,08,17,04,24,11.50
2015,08,17,04,25,11.50
2015,08,17,04,26,11.50
2015,08,17,04,27,11.40
2015,08,17,04,28,11.40
2015,08,17,04,29,11.40
2015,08,17,04,30,11.40
2015,08,17,04,31,11.40
2015,08,17,04,32,11.40
2015,08,17,04,33,11.40
2015,08,17,04,34,11.40
2015,08,17,04,35,11.40
2015,08,17,04,36,11.40
2015,08,17,04,37,11.40
2015,08,17,04,38,11.40
2015,08,17,04,39,11.40
2015,08,17,04,40,11.40
2015,08,17,04,41,11.40
2015,08,17,04,42,11.40
2015,08,17,04,43,11.30
2015,08,17,04,44,11.30
2015,08,17,04,45,11.30
2015,08,17,04,46,11.30
2015,08,17,04,47,11.30
2015,08,17,04,48,11.30
2015,08,17,04,49,11.40
2015,08,17,04,50,11.40
2015,08,17,04,51,11.50
2015,08,17,04,52,11.50
2015,08,17,04,53,11.50
2015,08,17,04,54,11.60
2015,08,17,04,55,11.60
2015,08,17,04,56,11.70
2015,08,17,04,57,11.70
2015,08,17,04,58,11.80
2015,08,17,04,59,11.90
2015,08,17,05,00,12.00
2015,08,17,05,01,12.00
2015,08,17,05,02,12.10
2015,08,17,05,03,12.10
2015,08,17,05,04,12.20
2015,08,17,05,05,12.20
2015,08,17,05,06,12.30
2015,08,17,05,07,12.30
2015,08,17,05,08,12.30
2015,08,17,05,09,12.40
2015,08,17,05,10,12.40
2015,08,17,05,11,12.40
2015,08,17,05,12,12.40
2015,08,17,05,13,12.40
2015,08,17,05,14,12.40
2015,08,17,05,15,12.40
2015,08,17,05,16,12.40
2015,08,17,05,17,12.30
2015,08,17,05,18,12.30
2015,08,17,05,19,12.30
2015,08,17,05,20,12.30
2015,08,17,05,21,12.30
2015,08,17,05,22,12.30
2015,08,17,05,23,12.30
2015,08,17,05,24,12.30
2015,08,17,05,25,12.30
2015,08,17,05,26,12.30
2015,08,17,05,27,12.30
2015,08,17,05,28,12.10
2015,08,17,05,29,12.10
2015,08,17,05,30,12.00
2015,08,17,05,31,11.90
2015,08,17,05,32,11.90
2015,08,17,05,33,11.90
2015,08,17,05,34,11.90
2015,08,17,05,35,11.90
2015,08,17,05,36,11.90
2015,08,17,05,37,11.90
2015,08,17,05,38,12.00
2015,08,17,05,39,12.00
2015,08,17,05,40,12.10
2015,08,17,05,41,12.10
2015,08,17,05,42,12.10
2015,08,17,05,43,12.10
2015,08,17,05,44,12.10
2015,08,17,05,45,12.10
2015,08,17,05,46,12.10
2015,08,17,05,47,12.10
2015,08,17,05,48,12.10
2015,08,17,05,49,12.10
2015,08,17,05,50,12.00
2015,08,17,05,51,12.00
2015,08,17,05,52,11.90
2015,08,17,05,53,11.90
2015,08,17,05,54,11.80
2015,08,17,05,55,11.80
2015,08,17,05,56,11.80
2015,08,17,05,57,11.80
2015,08,17,05,58,11.70
2015,08,17,05,59,11.70
2015,08,17,06,00,11.80
2015,08,17,06,01,11.80
2015,08,17,06,02,11.90
2015,08,17,06,03,11.90
2015,08,17,06,04,12.00
2015,08,17,06,05,12.00
2015,08,17,06,06,12.10
2015,08,17,06,07,12.10
2015,08,17,06,08,12.10
2015,08,17,06,09,12.10
2015,08,17,06,10,12.10
2015,08,17,06,11,12.20
2015,08,17,06,12,12.20
2015,08,17,06,13,12.30
2015,08,17,06,14,12.30
2015,08,17,06,15,12.30
2015,08,17,06,16,12.30
2015,08,17,06,17,12.30
2015,08,17,06,18,12.30
2015,08,17,06,19,12.20
2015,08,17,06,20,12.20
2015,08,17,06,21,12.20
2015,08,17,06,22,12.10
2015,08,17,06,23,12.10
2015,08,17,06,24,12.00
2015,08,17,06,25,12.00
2015,08,17,06,26,11.90
2015,08,17,06,27,11.90
2015,08,17,06,28,11.90
2015,08,17,06,29,11.80
2015,08,17,06,30,11.80
2015,08,17,06,31,11.80
2015,08,17,06,32,11.80
2015,08,17,06,33,11.80
2015,08,17,06,34,11.80
2015,08,17,06,35,11.80
2015,08,17,06,36,11.80
2015,08,17,06,37,11.90
2015,08,17,06,38,11.90
2015,08,17,06,39,11.90
2015,08,17,06,40,11.90
2015,08,17,06,41,11.90
2015,08,17,06,42,11.90
2015,08,17,06,43,11.90
2015,08,17,06,44,11.90
2015,08,17,06,45,11.90
2015,08,17,06,46,11.90
2015,08,17,06,47,11.90
2015,08,17,06,48,11.90
2015,08,17,06,49,11.90
2015,08,17,06,50,11.90
2015,08,17,06,51,12.00
2015,08,17,06,52,12.00
2015,08,17,06,53,12.00
2015,08,17,06,54,12.10
2015,08,17,06,55,12.10
2015,08,17,06,56,12.10
2015,08,17,06,57,12.20
2015,08,17,06,58,12.20
2015,08,17,06,59,12.20
2015,08,17,07,00,12.20
2015,08,17,07,01,12.30
2015,08,17,07,02,12.30
2015,08,17,07,03,12.30
2015,08,17,07,04,12.30
2015,08,17,07,05,12.30
2015,08,17,07,06,12.40
2015,08,17,07,07,12.40
2015,08,17,07,08,12.40
2015,08,17,07,09,12.50
2015,08,17,07,10,12.50
2015,08,17,07,11,12.60
2015,08,17,07,12,12.60
2015,08,17,07,13,12.60
2015,08,17,07,14,12.70
2015,08,17,07,15,12.70
2015,08,17,07,16,12.80
2015,08,17,07,17,12.80
2015,08,17,07,18,12.90
2015,08,17,07,19,12.90
2015,08,17,07,20,13.00
2015,08,17,07,21,13.00
2015,08,17,07,22,13.10
2015,08,17,07,23,13.10
2015,08,17,07,24,13.20
2015,08,17,07,25,13.20
2015,08,17,07,26,13.20
2015,08,17,07,27,13.30
2015,08,17,07,28,13.30
2015,08,17,07,29,13.40
2015,08,17,07,30,13.40
2015,08,17,07,31,13.40
2015,08,17,07,32,13.50
2015,08,17,07,33,13.50
2015,08,17,07,34,13.60
2015,08,17,07,35,13.60
2015,08,17,07,36,13.70
2015,08,17,07,37,13.70
2015,08,17,07,38,13.70
2015,08,17,07,39,13.80
2015,08,17,07,40,13.80
2015,08,17,07,41,13.80
2015,08,17,07,42,13.90
2015,08,17,07,43,13.90
2015,08,17,07,44,14.00
2015,08,17,07,45,14.00
2015,08,17,07,46,14.10
2015,08,17,07,47,14.10
2015,08,17,07,48,14.20
2015,08,17,07,49,14.20
2015,08,17,07,50,14.30
2015,08,17,07,51,14.30
2015,08,17,07,52,14.30
2015,08,17,07,53,14.40
2015,08,17,07,54,14.50
2015,08,17,07,55,14.60
2015,08,17,07,56,14.70
2015,08,17,07,57,14.90
2015,08,17,07,58,15.00
2015,08,17,07,59,15.10
2015,08,17,08,00,15.20
2015,08,17,08,01,15.30
2015,08,17,08,02,15.30
2015,08,17,08,03,15.40
2015,08,17,08,04,15.40
2015,08,17,08,05,15.40
2015,08,17,08,06,15.40
2015,08,17,08,07,15.50
2015,08,17,08,08,15.50
2015,08,17,08,09,15.50
2015,08,17,08,10,15.50
2015,08,17,08,11,15.60
2015,08,17,08,12,15.60
2015,08,17,08,13,15.60
2015,08,17,08,14,15.60
2015,08,17,08,15,15.60
2015,08,17,08,16,15.60
2015,08,17,08,17,15.60
2015,08,17,08,18,15.70
2015,08,17,08,19,15.70
2015,08,17,08,20,15.80
2015,08,17,08,21,15.80
2015,08,17,08,22,15.90
2015,08,17,08,23,15.90
2015,08,17,08,24,16.00
2015,08,17,08,25,16.00
2015,08,17,08,26,16.10
2015,08,17,08,27,16.10
2015,08,17,08,28,16.20
2015,08,17,08,29,16.20
2015,08,17,08,30,16.30
2015,08,17,08,31,16.30
2015,08,17,08,32,16.40
2015,08,17,08,33,16.50
2015,08,17,08,34,16.50
2015,08,17,08,35,16.60
2015,08,17,08,36,16.70
2015,08,17,08,37,16.80
2015,08,17,08,38,16.80
2015,08,17,08,39,16.90
2015,08,17,08,40,17.00
2015,08,17,08,41,17.00
2015,08,17,08,42,17.00
2015,08,17,08,43,17.00
2015,08,17,08,44,17.00
2015,08,17,08,45,17.00
2015,08,17,08,46,17.30
2015,08,17,08,47,17.70
2015,08,17,08,48,17.70
2015,08,17,08,49,17.80
2015,08,17,08,50,17.80
2015,08,17,08,51,17.90
2015,08,17,08,52,17.90
2015,08,17,08,53,17.90
2015,08,17,08,54,17.90
2015,08,17,08,55,18.00
2015,08,17,08,56,18.10
2015,08,17,08,57,18.20
2015,08,17,08,58,18.40
2015,08,17,08,59,18.60
2015,08,17,09,00,18.60
2015,08,17,09,01,18.80
2015,08,17,09,02,18.90
2015,08,17,09,03,19.00
2015,08,17,09,04,19.10
2015,08,17,09,05,19.10
2015,08,17,09,06,19.20
2015,08,17,09,07,19.30
2015,08,17,09,08,19.30
2015,08,17,09,09,19.30
2015,08,17,09,10,19.30
2015,08,17,09,11,19.20
2015,08,17,09,12,19.20
2015,08,17,09,13,19.20
2015,08,17,09,14,19.20
2015,08,17,09,15,19.10
2015,08,17,09,16,19.00
2015,08,17,09,17,19.00
2015,08,17,09,18,19.00
2015,08,17,09,19,18.90
2015,08,17,09,20,19.00
2015,08,17,09,21,19.00
2015,08,17,09,22,19.10
2015,08,17,09,23,19.10
2015,08,17,09,24,19.20
2015,08,17,09,25,19.20
2015,08,17,09,26,19.20
2015,08,17,09,27,19.20
2015,08,17,09,28,19.30
2015,08,17,09,29,19.20
2015,08,17,09,30,19.20
2015,08,17,09,31,19.20
2015,08,17,09,32,19.20
2015,08,17,09,33,19.20
2015,08,17,09,34,19.20
2015,08,17,09,35,19.20
2015,08,17,09,36,19.30
2015,08,17,09,37,19.40
2015,08,17,09,38,19.40
2015,08,17,09,39,19.40
2015,08,17,09,40,19.40
2015,08,17,09,41,19.30
2015,08,17,09,42,19.30
2015,08,17,09,43,19.30
2015,08,17,09,44,19.30
2015,08,17,09,45,19.20
2015,08,17,09,46,19.20
2015,08,17,09,47,19.20
2015,08,17,09,48,19.20
2015,08,17,09,49,19.20
2015,08,17,09,50,19.20
2015,08,17,09,51,19.20
2015,08,17,09,52,19.30
2015,08,17,09,53,19.30
2015,08,17,09,54,19.30
2015,08,17,09,55,19.30
2015,08,17,09,56,19.30
2015,08,17,09,57,19.40
2015,08,17,09,58,19.40
2015,08,17,09,59,19.50
2015,08,17,10,00,19.60
2015,08,17,10,01,19.60
2015,08,17,10,02,19.70
2015,08,17,10,03,19.80
2015,08,17,10,04,19.80
2015,08,17,10,05,19.90
2015,08,17,10,06,20.00
2015,08,17,10,07,20.10
2015,08,17,10,08,20.10
2015,08,17,10,09,20.10
2015,08,17,10,10,20.00
2015,08,17,10,11,20.00
2015,08,17,10,12,19.90
2015,08,17,10,13,20.00
2015,08,17,10,14,20.00
2015,08,17,10,15,20.00
2015,08,17,10,16,20.00
2015,08,17,10,17,20.00
2015,08,17,10,18,19.90
2015,08,17,10,19,20.00
2015,08,17,10,20,20.10
2015,08,17,10,21,20.00
2015,08,17,10,22,20.00
2015,08,17,10,23,20.00
2015,08,17,10,24,20.10
2015,08,17,10,25,20.10
2015,08,17,10,26,20.10
2015,08,17,10,27,20.10
2015,08,17,10,28,20.10
2015,08,17,10,29,20.20
2015,08,17,10,30,20.20
2015,08,17,10,31,20.20
2015,08,17,10,32,20.30
2015,08,17,10,33,20.20
2015,08,17,10,34,20.20
2015,08,17,10,35,20.20
2015,08,17,10,36,20.20
2015,08,17,10,37,20.20
2015,08,17,10,38,20.20
2015,08,17,10,39,20.20
2015,08,17,10,40,20.20
2015,08,17,10,41,20.20
2015,08,17,10,42,20.20
2015,08,17,10,43,20.20
2015,08,17,10,44,20.20
2015,08,17,10,45,20.20
2015,08,17,10,46,20.30
2015,08,17,10,47,20.30
2015,08,17,10,48,20.20
2015,08,17,10,49,20.20
2015,08,17,10,50,20.20
2015,08,17,10,51,20.20
2015,08,17,10,52,20.20
2015,08,17,10,53,20.20
2015,08,17,10,54,20.20
2015,08,17,10,55,20.10
2015,08,17,10,56,20.10
2015,08,17,10,57,20.10
2015,08,17,10,58,20.20
2015,08,17,10,59,20.20
2015,08,17,11,00,20.30
2015,08,17,11,01,20.30
2015,08,17,11,02,20.30
2015,08,17,11,03,20.40
2015,08,17,11,04,20.40
2015,08,17,11,05,20.40
2015,08,17,11,06,20.50
2015,08,17,11,07,20.50
2015,08,17,11,08,20.40
2015,08,17,11,09,20.40
2015,08,17,11,10,20.40
2015,08,17,11,11,20.40
2015,08,17,11,12,20.40
2015,08,17,11,13,20.40
2015,08,17,11,14,20.40
2015,08,17,11,15,20.40
2015,08,17,11,16,20.40
2015,08,17,11,17,20.50
2015,08,17,11,18,20.40
2015,08,17,11,19,20.40
2015,08,17,11,20,20.40
2015,08,17,11,21,20.40
2015,08,17,11,22,20.40
2015,08,17,11,23,20.40
2015,08,17,11,24,20.40
2015,08,17,11,25,20.30
2015,08,17,11,26,20.30
2015,08,17,11,27,20.40
2015,08,17,11,28,20.40
2015,08,17,11,29,20.30
2015,08,17,11,30,20.30
2015,08,17,11,31,20.30
2015,08,17,11,32,20.30
2015,08,17,11,33,20.40
2015,08,17,11,34,20.30
2015,08,17,11,35,20.30
2015,08,17,11,36,20.30
2015,08,17,11,37,20.30
2015,08,17,11,38,20.40
2015,08,17,11,39,20.40
2015,08,17,11,40,20.50
2015,08,17,11,41,20.50
2015,08,17,11,42,20.70
2015,08,17,11,43,20.80
2015,08,17,11,44,20.80
2015,08,17,11,45,20.90
2015,08,17,11,46,21.00
2015,08,17,11,47,21.10
2015,08,17,11,48,21.20
2015,08,17,11,49,21.20
2015,08,17,11,50,21.30
2015,08,17,11,51,21.40
2015,08,17,11,52,21.40
2015,08,17,11,53,21.50
2015,08,17,11,54,21.50
2015,08,17,11,55,21.40
2015,08,17,11,56,21.40
2015,08,17,11,57,21.30
2015,08,17,11,58,21.30
2015,08,17,11,59,21.30
2015,08,17,12,00,21.20
2015,08,17,12,01,21.20
2015,08,17,12,02,21.20
2015,08,17,12,03,21.10
2015,08,17,12,04,21.10
2015,08,17,12,05,21.00
2015,08,17,12,06,20.90
2015,08,17,12,07,20.90
2015,08,17,12,08,20.80
2015,08,17,12,09,20.80
2015,08,17,12,10,20.80
2015,08,17,12,11,20.70
2015,08,17,12,12,20.80
2015,08,17,12,13,20.80
2015,08,17,12,14,20.90
2015,08,17,12,15,20.90
2015,08,17,12,16,21.00
2015,08,17,12,17,21.00
2015,08,17,12,18,21.00
2015,08,17,12,19,21.00
2015,08,17,12,20,20.90
2015,08,17,12,21,20.90
2015,08,17,12,22,21.00
2015,08,17,12,23,21.10
2015,08,17,12,24,21.20
2015,08,17,12,25,21.20
2015,08,17,12,26,21.20
2015,08,17,12,27,21.20
2015,08,17,12,28,21.20
2015,08,17,12,29,21.30
2015,08,17,12,30,21.30
2015,08,17,12,31,21.40
2015,08,17,12,32,21.40
2015,08,17,12,33,21.40
2015,08,17,12,34,21.20
2015,08,17,12,35,21.10
2015,08,17,12,36,21.10
2015,08,17,12,37,21.10
2015,08,17,12,38,21.10
2015,08,17,12,39,21.10
2015,08,17,12,40,21.10
2015,08,17,12,41,21.20
2015,08,17,12,42,21.30
2015,08,17,12,43,21.30
2015,08,17,12,44,21.20
2015,08,17,12,45,21.20
2015,08,17,12,46,21.10
2015,08,17,12,47,21.10
2015,08,17,12,48,21.10
2015,08,17,12,49,21.00
2015,08,17,12,50,21.00
2015,08,17,12,51,20.90
2015,08,17,12,52,20.90
2015,08,17,12,53,20.90
2015,08,17,12,54,20.90
2015,08,17,12,55,20.90
2015,08,17,12,56,20.90
2015,08,17,12,57,20.90
2015,08,17,12,58,20.90
2015,08,17,12,59,20.90
2015,08,17,13,00,20.90
2015,08,17,13,01,20.90
2015,08,17,13,02,21.00
2015,08,17,13,03,21.10
2015,08,17,13,04,21.10
2015,08,17,13,05,21.20
2015,08,17,13,06,21.30
2015,08,17,13,07,21.40
2015,08,17,13,08,21.50
2015,08,17,13,09,21.60
2015,08,17,13,10,21.60
2015,08,17,13,11,21.70
2015,08,17,13,12,21.70
2015,08,17,13,13,21.70
2015,08,17,13,14,21.90
2015,08,17,13,15,21.90
2015,08,17,13,16,22.00
2015,08,17,13,17,22.10
2015,08,17,13,18,22.00
2015,08,17,13,19,22.00
2015,08,17,13,20,22.00
2015,08,17,13,21,22.00
2015,08,17,13,22,22.00
2015,08,17,13,23,22.00
2015,08,17,13,24,22.00
2015,08,17,13,25,22.00
2015,08,17,13,26,22.00
2015,08,17,13,27,22.10
2015,08,17,13,28,22.00
2015,08,17,13,29,22.10
2015,08,17,13,30,22.20
2015,08,17,13,31,22.20
2015,08,17,13,32,22.10
2015,08,17,13,33,22.10
2015,08,17,13,34,22.10
2015,08,17,13,35,22.10
2015,08,17,13,36,22.10
2015,08,17,13,37,22.20
2015,08,17,13,38,22.20
2015,08,17,13,39,22.20
2015,08,17,13,40,22.20
2015,08,17,13,41,22.20
2015,08,17,13,42,22.20
2015,08,17,13,43,22.30
2015,08,17,13,44,22.30
2015,08,17,13,45,22.20
2015,08,17,13,46,22.30
2015,08,17,13,47,22.30
2015,08,17,13,48,22.20
2015,08,17,13,49,22.20
2015,08,17,13,50,22.20
2015,08,17,13,51,22.10
2015,08,17,13,52,22.10
2015,08,17,13,53,22.10
2015,08,17,13,54,22.10
2015,08,17,13,55,22.10
2015,08,17,13,56,22.20
2015,08,17,13,57,22.30
2015,08,17,13,58,22.30
2015,08,17,13,59,22.30
2015,08,17,14,00,22.30
2015,08,17,14,01,22.30
2015,08,17,14,02,22.20
2015,08,17,14,03,22.20
2015,08,17,14,04,22.20
2015,08,17,14,05,22.20
2015,08,17,14,06,22.20
2015,08,17,14,07,22.10
2015,08,17,14,08,22.10
2015,08,17,14,09,22.20
2015,08,17,14,10,22.30
2015,08,17,14,11,22.30
2015,08,17,14,12,22.30
2015,08,17,14,13,22.30
2015,08,17,14,14,22.30
2015,08,17,14,15,22.30
2015,08,17,14,16,22.30
2015,08,17,14,17,22.40
2015,08,17,14,18,22.40
2015,08,17,14,19,22.40
2015,08,17,14,20,22.40
2015,08,17,14,21,22.30
2015,08,17,14,22,22.10
2015,08,17,14,23,22.00
2015,08,17,14,24,22.00
2015,08,17,14,25,22.10
2015,08,17,14,26,22.10
2015,08,17,14,27,22.10
2015,08,17,14,28,22.10
2015,08,17,14,29,22.00
2015,08,17,14,30,22.00
2015,08,17,14,31,22.00
2015,08,17,14,32,22.10
2015,08,17,14,33,22.10
2015,08,17,14,34,22.00
2015,08,17,14,35,22.00
2015,08,17,14,36,22.00
2015,08,17,14,37,22.10
2015,08,17,14,38,22.20
2015,08,17,14,39,22.30
2015,08,17,14,40,22.40
2015,08,17,14,41,22.40
2015,08,17,14,42,22.40
2015,08,17,14,43,22.30
2015,08,17,14,44,22.40
2015,08,17,14,45,22.40
2015,08,17,14,46,22.50
2015,08,17,14,47,22.50
2015,08,17,14,48,22.60
2015,08,17,14,49,22.50
2015,08,17,14,50,22.50
2015,08,17,14,51,22.50
2015,08,17,14,52,22.50
2015,08,17,14,53,22.50
2015,08,17,14,54,22.60
2015,08,17,14,55,22.60
2015,08,17,14,56,22.60
2015,08,17,14,57,22.60
2015,08,17,14,58,22.60
2015,08,17,14,59,22.60
2015,08,17,15,00,22.70
2015,08,17,15,01,22.70
2015,08,17,15,02,22.80
2015,08,17,15,03,22.80
2015,08,17,15,04,22.90
2015,08,17,15,05,23.00
2015,08,17,15,06,23.20
2015,08,17,15,07,23.30
2015,08,17,15,08,23.40
2015,08,17,15,09,23.40
2015,08,17,15,10,23.40
2015,08,17,15,11,23.40
2015,08,17,15,12,23.40
2015,08,17,15,13,23.40
2015,08,17,15,14,23.40
2015,08,17,15,15,23.30
2015,08,17,15,16,23.30
2015,08,17,15,17,23.30
2015,08,17,15,18,23.30
2015,08,17,15,19,23.30
2015,08,17,15,20,23.40
2015,08,17,15,21,23.40
2015,08,17,15,22,23.50
2015,08,17,15,23,23.50
2015,08,17,15,24,23.50
2015,08,17,15,25,23.50
2015,08,17,15,26,23.40
2015,08,17,15,27,23.30
2015,08,17,15,28,23.30
2015,08,17,15,29,23.20
2015,08,17,15,30,23.20
2015,08,17,15,31,23.10
2015,08,17,15,32,23.10
2015,08,17,15,33,23.10
2015,08,17,15,34,23.10
2015,08,17,15,35,23.10
2015,08,17,15,36,23.20
2015,08,17,15,37,23.20
2015,08,17,15,38,23.30
2015,08,17,15,39,23.30
2015,08,17,15,40,23.30
2015,08,17,15,41,23.30
2015,08,17,15,42,23.30
2015,08,17,15,43,23.30
2015,08,17,15,44,23.30
2015,08,17,15,45,23.30
2015,08,17,15,46,23.30
2015,08,17,15,47,23.30
2015,08,17,15,48,23.30
2015,08,17,15,49,23.30
2015,08,17,15,50,23.30
2015,08,17,15,51,23.40
2015,08,17,15,52,23.40
2015,08,17,15,53,23.40
2015,08,17,15,54,23.40
2015,08,17,15,55,23.50
2015,08,17,15,56,23.50
2015,08,17,15,57,23.50
2015,08,17,15,58,23.50
2015,08,17,15,59,23.40
2015,08,17,16,00,23.30
2015,08,17,16,01,23.30
2015,08,17,16,02,23.20
2015,08,17,16,03,23.20
2015,08,17,16,04,23.20
2015,08,17,16,05,23.20
2015,08,17,16,06,23.20
2015,08,17,16,07,23.10
2015,08,17,16,08,23.00
2015,08,17,16,09,23.00
2015,08,17,16,10,23.00
2015,08,17,16,11,22.90
2015,08,17,16,12,22.90
2015,08,17,16,13,22.90
2015,08,17,16,14,22.90
2015,08,17,16,15,22.90
2015,08,17,16,16,22.90
2015,08,17,16,17,22.90
2015,08,17,16,18,22.90
2015,08,17,16,19,22.90
2015,08,17,16,20,22.90
2015,08,17,16,21,23.00
2015,08,17,16,22,23.00
2015,08,17,16,23,23.10
2015,08,17,16,24,23.20
2015,08,17,16,25,23.20
2015,08,17,16,26,23.30
2015,08,17,16,27,23.30
2015,08,17,16,28,23.40
2015,08,17,16,29,23.40
2015,08,17,16,30,23.40
2015,08,17,16,31,23.40
2015,08,17,16,32,23.40
2015,08,17,16,33,23.30
2015,08,17,16,34,23.30
2015,08,17,16,35,23.30
2015,08,17,16,36,23.20
2015,08,17,16,37,23.10
2015,08,17,16,38,23.00
2015,08,17,16,39,22.90
2015,08,17,16,40,22.90
2015,08,17,16,41,22.80
2015,08,17,16,42,22.80
2015,08,17,16,43,22.70
2015,08,17,16,44,22.70
2015,08,17,16,45,22.70
2015,08,17,16,46,22.70
2015,08,17,16,47,22.70
2015,08,17,16,48,22.70
2015,08,17,16,49,22.60
2015,08,17,16,50,22.60
2015,08,17,16,51,22.60
2015,08,17,16,52,22.60
2015,08,17,16,53,22.60
2015,08,17,16,54,22.70
2015,08,17,16,55,22.70
2015,08,17,16,56,22.70
2015,08,17,16,57,22.70
2015,08,17,16,58,22.70
2015,08,17,16,59,22.70
2015,08,17,17,00,22.70
2015,08,17,17,01,22.70
2015,08,17,17,02,22.70
2015,08,17,17,03,22.70
2015,08,17,17,04,22.60
2015,08,17,17,05,22.50
2015,08,17,17,06,22.50
2015,08,17,17,07,22.50
2015,08,17,17,08,22.50
2015,08,17,17,09,22.40
2015,08,17,17,10,22.40
2015,08,17,17,11,22.40
2015,08,17,17,12,22.30
2015,08,17,17,13,22.30
2015,08,17,17,14,22.30
2015,08,17,17,15,22.30
2015,08,17,17,16,22.30
2015,08,17,17,17,22.30
2015,08,17,17,18,22.40
2015,08,17,17,19,22.40